RH
30 30 29 30 33 31 31 32 31 31 31 30 30 28 29 31 30 29 31 30 30 29 28 25 22 17 15 14 14 14 13 13 16 20 25 26 24 20 17 15 14 15 15 14 15 17 17 18 20 23 25 26 25 25 26 28 31 33 33 32 30 28 28 28 27 26 26 27 27 25 26 26 25 26 27 28 27 26 27 25 23 27 31 35 38 36 38 38
30 32 31 31 32 31 32 31 30 30 29 27 25 22 22 26 28 28 29 28 28 28 27 24 20 15 13 13 13 13 12 14 19 22 24 23 22 21 19 16 13 12 13 16 22 22 20 18 16 18 21 22 23 23 24 25 28 31 31 29 27 26 26 27 27 26 26 27 27 26 26 26 26 26 27 27 29 29 29 26 24 27 31 35 36 34 36 35
32 34 33 32 31 30 30 29 28 27 26 25 23 21 20 22 25 26 25 24 25 24 22 20 17 13 12 12 13 13 14 19 22 23 22 19 20 21 19 17 14 13 14 18 22 22 22 21 19 16 16 18 19 21 23 23 25 27 28 28 25 24 25 25 26 27 27 26 27 27 26 25 25 25 26 26 29 29 27 26 25 25 26 31 35 31 31 31
33 33 32 31 30 30 29 27 26 25 25 25 24 24 22 22 23 24 23 23 21 18 17 15 13 13 12 12 13 14 19 25 25 25 24 20 21 20 16 15 16 15 17 20 20 20 22 23 23 20 19 18 16 18 22 23 23 24 25 25 23 23 24 25 26 27 27 26 26 26 27 26 25 24 26 26 27 28 25 24 25 25 22 25 34 35 31 34
33 32 31 31 31 30 29 28 26 25 26 25 25 26 24 21 21 22 22 20 18 17 16 15 14 13 12 12 13 18 24 28 30 29 26 24 23 19 14 14 15 15 18 23 22 19 20 21 23 23 22 21 19 17 17 20 22 24 24 22 21 23 23 25 26 26 25 25 26 27 27 27 26 24 26 26 24 26 27 24 23 25 23 24 35 39 34 37
32 32 32 33 32 32 31 30 29 28 28 27 27 28 24 20 19 19 20 20 19 19 18 18 16 14 13 11 13 21 24 23 25 25 23 23 22 18 14 13 13 14 18 22 22 20 20 20 22 23 22 22 22 18 15 15 19 21 21 20 20 21 23 25 26 25 25 25 26 27 28 28 27 25 25 25 23 25 27 25 22 22 26 28 38 44 42 41
32 32 33 33 33 33 33 32 31 32 32 32 34 34 28 22 18 17 18 18 19 19 20 19 19 17 15 11 15 22 21 19 20 20 19 19 18 17 13 12 13 16 20 20 19 20 22 22 22 23 24 25 23 19 17 15 15 16 17 18 18 20 23 25 25 25 24 23 24 26 28 28 27 25 25 24 23 24 24 24 23 23 27 30 37 48 51 46
33 33 32 32 33 33 34 34 33 33 34 35 36 38 36 31 25 21 20 20 21 22 23 22 21 20 17 17 22 22 19 20 21 19 17 16 16 16 13 13 15 18 19 18 17 19 21 24 27 29 30 30 25 21 19 16 15 14 13 14 16 19 23 24 24 24 23 23 24 25 26 24 23 24 25 24 23 23 21 22 25 25 27 28 31 39 45 45
33 32 31 31 32 33 34 35 35 35 37 38 40 42 42 39 33 28 26 24 24 24 25 26 25 22 21 25 28 23 21 23 21 19 18 16 16 15 14 14 16 17 18 17 17 17 19 23 30 36 35 33 29 24 21 18 16 14 13 13 13 17 22 23 22 22 22 22 25 26 25 23 22 24 25 24 23 24 23 21 24 25 25 26 27 30 33 39
33 32 31 30 31 33 34 35 37 40 41 41 43 45 45 43 37 29 24 22 22 21 22 23 26 26 27 29 27 23 24 24 21 19 19 18 17 15 14 14 14 15 15 16 16 15 17 19 26 35 37 35 32 27 23 20 17 15 14 14 14 16 19 20 20 20 21 22 22 24 24 23 26 27 24 21 23 25 25 23 24 23 21 22 25 29 30 33
31 31 32 31 32 33 35 37 40 43 43 42 43 44 42 41 37 30 24 21 19 19 18 19 23 28 30 29 26 24 23 23 22 21 19 19 18 17 15 14 14 14 14 14 14 14 15 17 21 31 36 35 33 30 26 22 18 17 17 17 17 17 17 17 17 17 19 20 21 21 23 24 28 26 18 18 23 26 28 27 25 21 19 21 25 32 36 35
26 28 32 33 34 36 37 39 41 41 42 43 42 40 38 36 32 30 28 23 19 17 17 17 20 27 30 29 27 24 21 22 24 24 22 22 21 20 18 17 15 15 14 13 13 13 14 15 18 23 30 33 32 31 28 24 21 19 18 18 18 17 17 15 14 15 16 16 17 19 21 23 23 18 14 19 23 26 30 26 24 22 21 24 26 34 40 38
28 28 31 32 33 37 41 41 41 40 42 44 42 38 35 32 30 31 30 27 24 20 19 18 19 28 33 30 27 24 23 24 25 25 25 24 22 21 20 18 16 15 14 13 13 13 13 14 16 18 24 31 33 31 29 27 25 23 20 18 18 18 18 16 14 13 13 14 15 18 19 18 16 13 14 22 23 23 25 21 21 23 22 24 25 31 41 40
32 32 34 35 37 40 43 44 44 43 45 45 41 38 35 32 30 31 30 29 28 27 25 24 26 34 36 30 26 26 28 29 28 27 26 25 23 21 19 18 16 15 14 14 13 12 12 12 14 18 21 27 33 34 32 30 27 25 24 21 18 18 17 16 15 14 13 13 14 16 15 13 13 13 15 19 19 19 18 16 20 23 21 22 22 29 41 41
34 35 37 39 41 42 44 47 48 48 48 45 41 39 36 34 33 33 31 29 30 31 31 31 33 37 35 30 27 28 31 32 31 31 29 26 24 22 21 19 17 15 15 14 14 13 13 12 12 17 19 20 28 35 35 33 31 28 27 24 19 17 16 15 16 15 13 13 14 14 13 12 14 13 14 15 15 15 15 14 18 21 20 20 21 27 36 39
36 37 39 41 44 45 47 48 49 49 48 44 40 39 38 36 35 34 31 31 35 36 36 36 36 38 35 32 32 31 32 34 36 35 32 29 26 24 23 21 18 16 15 14 14 14 13 13 11 15 20 21 27 33 35 36 33 29 26 24 21 18 16 16 17 16 13 13 15 15 13 13 13 12 12 12 12 12 11 12 16 18 18 18 21 22 28 35
36 38 41 44 46 47 49 49 48 48 46 42 39 38 38 37 36 35 33 37 41 43 42 39 38 40 38 37 38 39 39 40 40 38 36 35 31 29 28 25 24 23 21 18 17 16 16 15 14 17 22 23 27 30 36 38 32 27 24 23 23 20 17 16 17 16 14 14 16 16 14 12 12 11 11 10 9 11 10 11 13 13 15 16 18 18 22 32
37 40 43 45 47 49 50 49 47 47 45 41 38 37 37 39 38 38 40 43 44 45 46 45 47 49 46 44 44 44 43 42 40 37 37 39 37 37 34 31 31 31 28 26 24 21 20 19 18 22 23 23 26 29 33 33 27 26 26 25 24 22 20 17 16 14 13 14 17 17 15 13 13 12 11 10 9 10 10 10 11 11 12 14 15 17 19 28
39 42 44 45 47 49 48 48 46 45 44 41 38 37 39 43 42 43 49 52 49 49 52 54 55 53 49 47 47 45 44 43 42 39 38 42 43 43 42 38 37 35 31 29 26 24 24 22 22 25 25 23 24 26 27 26 26 31 30 27 25 23 21 19 17 14 12 16 18 16 15 14 14 13 11 12 10 10 10 10 10 11 12 13 16 19 18 25
41 43 43 43 47 50 48 47 46 43 43 42 41 41 43 46 49 51 57 59 56 56 59 62 58 51 47 49 49 48 48 46 45 44 43 45 46 46 47 46 42 40 34 29 26 25 27 25 23 24 24 21 21 23 24 23 28 36 33 26 24 23 20 20 19 14 13 17 18 16 15 14 15 14 12 11 11 11 10 11 11 12 13 14 17 20 20 25
39 41 42 44 48 50 49 48 44 41 42 43 45 48 48 50 53 54 54 55 58 60 58 57 54 49 46 49 51 50 50 48 47 49 47 48 49 46 47 48 45 41 35 30 28 30 34 30 22 20 21 21 20 21 22 22 27 34 32 26 23 23 21 20 20 15 14 17 17 16 15 15 15 14 13 11 11 11 10 12 13 13 13 13 15 19 22 25
39 41 44 46 48 50 50 47 41 40 42 44 48 52 53 56 57 54 52 51 58 64 57 49 48 46 45 49 53 52 52 49 47 51 53 55 53 47 48 50 48 43 38 38 37 37 40 32 21 18 20 21 20 21 22 21 26 31 32 28 24 24 22 20 19 15 14 15 17 17 16 15 15 14 14 13 11 10 9 13 16 13 13 14 15 19 22 27
39 41 43 47 49 51 48 42 39 41 44 47 50 53 54 57 55 54 56 54 55 60 53 47 49 48 48 52 54 53 53 49 47 50 58 61 54 48 50 51 52 49 45 46 44 42 39 27 19 18 20 23 21 23 26 22 24 29 30 30 27 26 25 21 19 16 14 15 17 20 19 17 15 13 13 13 12 11 10 14 16 13 14 15 15 19 22 29
39 40 43 47 50 50 44 39 40 43 45 48 52 55 56 56 55 56 59 56 52 53 49 47 50 51 53 56 55 54 53 50 48 52 60 63 58 56 53 51 54 53 46 45 45 45 37 24 23 24 21 24 23 26 34 30 25 26 28 30 29 28 26 20 18 17 16 17 18 23 22 17 16 13 12 13 13 12 12 15 15 14 15 16 17 19 23 32
37 40 43 47 50 48 42 40 43 45 47 50 53 56 58 59 59 60 60 56 51 48 49 52 55 55 58 60 57 55 53 50 51 56 62 64 63 62 58 55 55 48 43 43 44 44 35 25 32 34 26 28 30 32 37 34 30 26 25 28 27 26 28 24 19 18 19 19 19 23 24 19 16 13 12 12 14 13 13 15 16 15 16 18 20 21 23 35
35 38 41 47 49 45 42 43 46 47 48 52 55 58 63 63 62 62 62 61 57 52 54 57 59 60 63 62 59 57 54 53 53 58 66 67 65 65 63 61 55 48 44 42 44 44 34 29 36 40 35 34 37 39 38 34 33 29 23 24 26 27 32 31 24 20 19 19 19 23 25 21 17 14 12 12 14 14 14 16 18 19 18 19 21 21 26 38
34 37 41 46 47 45 45 45 47 50 51 54 57 62 67 66 65 65 66 66 63 60 59 61 65 68 68 65 63 61 59 56 53 58 67 69 66 65 63 58 54 49 44 45 51 45 38 39 39 41 41 39 40 40 37 34 32 29 24 22 25 27 31 32 27 23 20 19 21 24 26 24 18 14 11 11 13 14 14 15 18 20 20 21 21 22 30 39
35 37 42 47 48 46 44 45 50 55 55 57 62 66 69 68 68 69 71 73 68 63 65 68 72 73 71 69 68 64 59 56 57 61 66 66 64 62 56 50 49 46 43 47 50 45 46 50 41 43 47 42 40 41 35 33 31 28 26 23 23 26 29 32 28 23 20 19 22 26 30 26 17 14 15 12 12 14 14 15 17 20 21 23 22 22 30 38
34 38 42 48 51 47 45 47 53 58 59 62 67 70 71 72 72 70 75 77 67 64 72 75 77 77 74 74 74 68 61 60 63 67 68 67 64 58 52 50 49 48 46 44 45 52 63 60 46 49 57 45 38 39 35 34 31 27 26 24 22 25 30 34 31 23 19 22 26 28 30 26 15 15 19 15 12 13 14 15 17 20 22 25 24 24 31 35
35 39 43 48 50 48 47 51 55 59 64 67 72 74 74 75 75 75 80 77 66 68 77 78 78 79 77 77 76 72 67 63 66 73 73 68 63 57 51 50 50 50 50 46 50 61 67 66 56 51 56 48 37 36 37 39 35 27 28 28 25 29 33 34 33 25 22 26 29 27 26 27 19 14 17 17 14 13 15 15 16 21 25 27 26 25 31 35
35 39 44 47 48 46 48 52 55 60 66 69 73 77 78 76 76 78 79 74 70 74 79 78 81 82 79 79 78 75 69 62 65 76 77 66 61 59 51 48 48 51 54 54 60 65 67 71 64 50 51 51 42 40 42 47 42 32 36 39 36 37 36 33 30 26 25 27 27 23 23 27 22 13 12 16 18 14 14 16 15 20 26 28 29 27 31 32
35 39 44 48 47 46 48 52 55 61 66 70 75 80 80 79 77 76 75 73 76 81 80 81 85 83 79 80 80 76 70 62 62 70 72 64 60 60 54 50 50 52 56 59 64 70 70 68 59 51 54 55 50 51 51 50 47 40 42 45 42 42 38 34 32 29 27 26 25 23 22 24 21 13 11 14 19 16 14 16 15 19 25 27 29 29 30 30
35 39 46 49 48 48 50 52 57 63 67 72 78 81 82 81 75 72 74 76 80 84 85 86 85 80 79 81 80 76 69 64 62 63 66 64 59 61 58 52 52 55 58 64 71 75 71 64 58 57 60 58 56 59 56 51 48 44 45 45 43 43 43 42 36 30 28 24 23 24 23 23 20 15 11 11 17 19 15 16 16 20 24 27 29 28 28 30
37 42 48 50 49 50 51 53 57 62 68 75 81 82 82 82 73 69 74 79 82 86 89 89 81 74 77 79 77 76 70 66 64 60 62 63 60 61 59 51 50 57 65 75 78 73 67 67 66 66 67 64 59 58 57 53 48 45 45 45 44 42 41 39 32 27 27 24 23 25 24 22 20 18 13 10 16 24 22 17 16 20 24 28 32 30 27 29
39 45 49 49 50 50 50 54 57 62 70 79 82 82 83 82 75 74 78 81 86 90 89 84 76 76 78 72 70 74 70 65 65 62 61 62 59 57 56 53 52 58 70 81 79 68 64 64 63 66 67 63 59 57 57 56 50 46 46 44 44 41 35 31 29 27 26 26 26 26 24 21 20 22 16 9 15 27 28 22 19 22 26 31 35 33 28 28
41 46 50 51 50 50 51 54 58 64 74 82 86 85 83 81 78 81 84 84 91 95 91 82 73 76 78 69 68 73 65 60 64 65 64 61 57 54 57 59 59 59 67 78 81 73 69 64 59 65 66 61 61 61 57 58 53 47 48 46 42 39 34 32 33 29 28 30 29 25 24 21 20 26 22 12 16 27 30 26 23 27 31 34 36 34 30 31
42 48 54 55 53 51 53 56 59 68 78 85 90 87 81 80 81 86 87 87 93 98 97 90 76 73 75 70 71 71 61 58 61 65 65 58 52 53 56 60 60 61 65 73 79 77 73 68 58 59 63 60 61 63 56 54 53 49 48 47 42 40 37 36 36 35 33 34 31 24 23 22 20 25 24 15 18 29 32 29 25 27 32 36 37 35 34 34
44 51 58 58 53 52 53 57 62 71 81 88 90 86 81 82 83 87 90 90 95 99 98 92 80 75 73 70 72 68 60 60 60 59 57 50 50 53 54 57 58 61 65 71 77 74 75 76 60 50 58 59 60 64 58 52 49 46 42 41 42 42 40 37 38 40 37 34 31 24 23 24 21 21 21 16 19 29 33 30 26 26 30 36 38 36 38 39
45 54 61 58 52 52 56 60 65 74 84 88 89 86 84 84 83 85 90 91 96 98 94 90 84 80 75 72 75 66 55 56 54 52 51 47 52 54 52 55 58 60 65 73 77 73 73 80 66 49 56 61 63 66 60 53 49 44 38 38 40 40 38 36 35 35 33 31 31 28 26 26 23 21 20 17 19 25 30 30 26 26 29 35 37 36 38 42
47 56 61 55 53 55 56 61 68 77 83 84 86 86 86 86 84 83 88 92 96 96 94 92 87 85 81 78 77 64 51 51 47 47 51 48 48 51 50 53 56 59 65 69 73 73 73 79 69 53 56 64 64 60 53 50 50 44 41 40 39 38 37 35 32 30 31 32 31 31 32 27 22 25 25 22 22 23 27 29 26 26 28 31 36 35 33 38
50 59 61 55 54 57 57 62 68 74 79 82 85 86 87 88 86 85 88 93 96 94 96 96 89 86 84 79 73 60 51 50 43 43 50 45 42 45 46 50 55 59 64 65 69 72 74 79 71 59 62 63 56 49 47 49 49 44 41 40 38 37 36 36 36 32 32 33 31 32 34 28 23 28 31 29 26 24 27 28 25 25 27 29 35 36 32 34
52 60 61 55 55 57 59 63 66 70 77 82 85 87 87 87 86 88 89 91 94 92 94 97 92 87 83 75 69 58 53 53 45 44 50 43 41 44 43 47 53 57 62 64 66 68 73 82 76 58 55 57 50 45 46 50 49 43 41 40 38 37 38 38 39 34 32 33 29 29 34 32 26 30 35 34 28 23 24 26 24 26 28 30 35 37 34 34
51 57 57 54 54 56 61 64 64 69 75 79 83 85 86 88 87 88 88 89 93 92 94 97 95 89 83 78 74 62 55 56 48 46 50 43 37 40 40 45 50 54 59 61 64 68 75 83 75 58 53 54 52 49 47 49 48 43 42 41 38 39 40 39 39 36 34 33 29 29 35 35 29 30 36 37 30 25 25 25 25 27 29 31 35 37 35 35
50 54 55 54 55 58 64 64 62 66 70 75 82 85 86 88 87 87 88 89 92 95 96 98 96 93 89 87 86 71 58 57 51 47 51 48 41 39 38 43 48 52 55 58 66 73 77 79 74 67 68 67 63 60 55 52 48 44 42 41 40 41 41 41 41 39 35 31 29 30 33 34 32 30 33 37 33 29 27 25 23 26 30 34 37 37 34 35
48 51 51 52 57 61 63 61 59 62 66 71 79 83 85 87 85 84 86 88 91 94 97 97 95 96 94 90 88 78 62 59 58 52 50 51 47 40 37 39 44 50 52 56 67 73 77 81 76 69 71 73 71 67 59 52 49 47 43 40 40 41 41 43 44 40 37 31 27 28 32 34 36 33 32 37 34 29 30 30 26 25 30 35 36 36 35 37
47 50 47 46 53 59 60 58 58 62 65 70 76 80 84 86 83 81 83 88 91 91 94 96 93 93 93 88 88 86 72 62 62 60 56 57 49 39 36 36 38 46 51 55 64 70 74 80 76 63 57 57 58 56 49 44 44 45 43 39 40 41 40 43 45 42 37 32 29 30 34 38 38 36 35 35 31 27 30 34 33 31 32 34 36 34 34 38
45 48 44 43 50 57 59 56 57 63 67 70 75 79 84 86 83 81 81 85 89 90 91 93 91 90 89 85 87 92 84 68 61 59 57 56 46 36 34 32 32 41 48 50 58 69 74 75 71 63 59 58 57 51 45 41 38 40 42 41 39 39 40 43 46 43 37 37 38 37 38 40 39 38 36 31 28 27 28 31 33 34 36 37 36 33 34 38
39 43 42 44 49 55 59 58 58 63 67 68 72 78 83 84 84 84 81 82 87 90 91 91 90 89 86 85 88 93 89 75 61 56 56 52 43 36 33 28 28 37 42 44 54 70 79 75 67 66 67 66 64 56 47 41 37 37 41 42 39 39 42 45 44 41 39 43 46 43 42 43 41 40 38 31 28 29 27 28 31 34 39 38 34 33 35 37
37 41 42 44 47 54 60 62 60 62 65 64 67 74 79 82 85 84 81 81 85 88 90 92 91 87 84 88 91 90 86 77 64 57 59 56 47 42 37 29 30 37 41 46 57 70 78 75 68 70 71 66 63 59 50 42 39 39 41 43 41 40 43 44 43 42 43 48 51 48 48 48 45 45 43 36 34 34 32 32 34 36 38 36 33 33 33 34
38 41 44 47 49 53 58 60 61 61 60 59 63 70 76 80 85 83 79 80 82 85 89 89 88 84 82 85 87 84 81 77 67 61 63 61 53 50 44 36 36 41 43 49 61 71 76 74 69 71 72 65 62 61 52 43 42 44 43 42 41 41 41 44 48 48 45 48 51 50 51 52 48 48 47 41 39 40 40 42 42 40 38 37 36 34 31 31
39 41 46 48 47 50 53 57 61 60 58 58 63 68 74 79 84 82 78 77 78 84 88 88 88 85 78 76 77 75 72 72 71 68 63 58 54 53 50 45 45 50 48 50 64 78 79 74 69 70 71 65 61 62 57 46 42 44 46 43 42 42 42 43 50 52 48 48 49 50 52 52 49 51 50 46 44 43 44 48 48 46 43 42 41 38 35 34
42 42 46 47 45 46 49 53 58 59 59 61 62 65 72 78 79 79 79 76 75 83 88 86 88 88 79 74 72 65 62 64 67 67 63 60 55 50 50 49 49 54 52 51 63 78 82 80 78 74 70 63 59 58 57 50 45 47 49 44 40 42 43 43 47 51 51 49 49 53 56 51 49 53 54 50 50 48 45 45 47 48 45 42 41 40 38 37